Temperature
16 17 17 17 17 17 17 17 17 16 16 16 16 15 15 15 14 14 14 14 14 14 14 13 13 13 13 13 13 13 13 13 14 14 15 15 15 15 15 15 15 15 15
17 17 17 17 17 17 17 17 17 16 16 16 16 15 15 15 14 14 14 14 14 14 13 13 13 13 13 13 13 13 13 13 13 14 14 15 15 15 15 15 15 15 14
17 17 17 17 17 17 17 17 17 17 16 16 16 15 15 15 14 14 14 14 14 14 14 13 13 13 13 13 13 13 13 13 13 13 14 14 14 15 15 15 15 15 14
17 17 17 17 17 17 17 17 17 17 16 16 16 15 15 15 15 14 14 14 14 14 14 13 13 13 13 12 13 13 13 13 13 13 13 13 14 14 14 15 15 15 15
17 17 17 17 17 17 17 17 17 17 16 16 16 16 15 15 15 14 14 14 14 14 14 13 13 13 13 12 12 12 12 12 12 13 13 13 13 13 14 14 14 14 14
16 16 16 16 16 16 16 16 16 16 16 16 16 16 15 15 15 15 14 14 14 14 14 14 13 13 13 13 12 12 12 12 12 12 12 12 13 13 13 13 13 14 14
15 15 15 15 16 16 16 16 16 16 16 16 16 15 15 15 15 15 14 14 14 14 14 14 13 13 13 13 13 13 13 12 12 12 12 12 12 12 12 13 13 13 14
14 14 14 14 14 14 15 15 15 15 15 15 15 14 14 14 14 14 14 14 14 14 14 14 14 14 13 13 13 13 13 13 12 12 12 12 12 12 12 12 12 12 13
12 13 13 13 13 13 13 13 13 13 13 13 13 13 13 14 14 14 14 14 14 14 14 14 14 14 13 13 13 13 13 13 13 12 12 12 12 12 11 12 12 12 12
12 12 12 12 12 12 12 12 12 12 12 12 12 12 12 13 13 13 13 13 13 13 13 14 14 14 14 13 13 13 13 13 13 13 12 12 12 12 12 12 12 12 12
12 11 11 11 11 11 11 11 11 11 11 11 11 11 12 12 12 12 12 13 13 13 13 13 13 13 13 13 13 13 13 13 13 13 13 12 12 12 12 12 12 12 12
12 11 11 11 11 11 11 11 11 11 11 11 11 11 11 11 12 12 12 12 12 12 12 13 13 13 13 13 13 13 13 13 13 13 13 12 12 12 12 12 12 12 11
12 12 11 11 11 11 11 11 11 11 11 11 11 11 11 11 11 11 11 11 11 12 12 12 12 12 13 13 13 13 13 13 13 13 12 12 12 12 11 11 11 11 11
12 12 11 11 11 11 11 11 11 11 11 11 11 11 11 11 11 11 11 11 11 11 11 12 12 12 12 12 13 13 13 13 12 12 12 11 11 11 11 11 11 11 11
12 12 11 11 11 11 11 11 10 10 10 10 10 10 10 10 10 10 10 10 11 11 11 11 11 11 11 12 12 12 12 12 11 11 11 11 11 10 10 10 10 10 10
13 12 12 11 11 11 11 11 10 10 10 10 10 10 10 10 10 10 10 10 10 10 10 10 10 10 10 11 11 11 11 11 11 11 10 10 10 10 10 10 10 10 10
13 12 12 11 11 11 11 10 10 10 10 10 10 10 10 10 10 10 10 10 10 10 10 10 10 10 10 10 10 10 10 10 10 10 10 10 10 10 9 9 9 9 9
13 12 12 11 11 11 11 11 10 10 10 10 10 9 9 10 10 10 9 10 10 9 9 9 9 9 9 9 9 9 9 9 9 9 9 9 9 9 9 9 9 9 9
13 12 12 11 11 11 11 11 10 10 10 10 10 10 10 9 9 9 9 9 9 9 9 9 9 9 9 9 9 9 9 9 9 9 9 9 8 8 8 8 8 8 8
13 12 12 11 11 11 11 11 11 10 10 10 10 10 10 10 9 9 9 9 9 8 8 8 8 8 8 8 8 8 8 8 8 8 8 8 8 8 8 8 8 8 8
13 12 12 11 11 11 11 11 11 10 10 10 10 10 9 9 9 9 8 8 8 8 8 8 8 8 8 8 8 8 8 8 8 8 7 7 7 7 7 7 7 7 7
13 12 12 11 11 11 11 11 11 10 10 10 10 9 9 9 9 8 8 8 7 7 7 7 7 7 7 7 7 8 8 8 7 7 7 7 7 7 7 7 7 7 7
13 13 12 11 11 11 11 11 10 10 10 10 10 9 9 9 8 8 8 7 7 7 7 7 7 7 8 8 8 8 8 8 7 6 6 6 6 6 6 6 6 6 6
13 13 12 11 11 11 11 11 10 10 10 10 9 9 9 8 8 8 8 7 7 7 7 7 8 8 8 8 8 8 8 7 7 7 6 6 6 6 6 5 5 5 5
13 13 12 11 11 11 11 11 11 10 10 9 9 9 8 8 8 8 8 8 8 8 8 8 8 8 8 8 8 8 7 7 7 7 7 6 6 6 5 5 5 5 5
13 13 12 12 11 11 11 11 11 10 10 9 9 8 8 8 7 7 8 8 8 8 8 8 8 8 8 8 8 8 7 7 7 7 6 6 6 5 5 5 4 4 4
Wind_Speed
4 3 3 2 3 3 3 3 4 4 5 5 5 5 4 3 3 2 1 1 2 2 3 4 6 6 6 7 7 7 7 7 8 5 3 2 5 5 6 11 13 13 12
3 3 2 2 2 3 2 3 4 4 5 5 6 5 5 5 4 4 3 2 2 1 2 2 3 4 6 6 7 9 8 8 8 8 4 3 4 4 4 5 8 10 12
3 3 3 2 2 2 2 3 4 4 5 5 5 5 5 5 5 5 4 3 3 2 2 2 2 3 4 5 6 7 8 8 8 7 5 3 2 2 2 3 4 5 8
4 3 2 2 2 2 2 2 3 4 5 5 6 6 5 5 5 5 5 4 4 3 3 3 2 3 3 3 4 5 6 7 8 7 5 4 3 2 3 3 3 5 6
4 2 1 1 1 1 1 2 2 3 4 5 5 6 5 5 6 7 6 6 5 4 3 3 3 4 4 4 3 3 4 5 6 6 6 5 5 4 4 4 4 3 4
9 7 6 5 5 4 4 3 3 2 2 3 5 5 5 5 8 11 9 6 6 6 5 4 4 4 5 5 6 5 5 4 4 4 5 6 7 5 4 4 3 2 3
10 9 9 8 8 8 7 6 6 5 3 2 2 3 5 6 9 9 12 7 7 6 6 5 3 4 5 4 5 6 6 7 6 3 3 4 5 6 6 5 4 4 4
9 9 9 9 8 8 8 8 7 5 5 4 4 3 3 5 6 8 8 7 6 6 6 6 5 5 5 5 5 5 5 5 6 5 4 3 3 3 3 3 3 3 3
8 8 8 8 8 8 8 7 6 6 6 5 5 5 4 5 7 5 4 4 4 5 5 6 6 6 8 7 5 5 6 6 7 8 8 6 6 6 4 2 2 2 3
7 7 7 7 7 7 7 6 5 5 6 6 7 7 7 7 11 10 3 2 3 3 3 4 7 8 8 7 6 6 7 6 4 4 5 6 5 5 6 5 4 4 3
5 6 7 7 6 6 6 6 6 6 7 7 7 7 8 9 11 14 9 2 1 2 2 2 3 6 8 7 8 7 8 4 3 3 2 2 2 2 2 2 4 4 4
4 5 6 6 6 6 6 7 7 7 8 8 7 7 7 8 10 12 13 9 4 0 1 2 3 5 5 4 4 6 7 5 3 3 2 1 1 1 0 0 1 2 3
3 4 4 5 5 6 6 7 6 7 6 6 6 7 7 6 8 13 13 11 9 3 2 3 3 3 2 2 1 3 5 4 4 3 2 1 1 1 1 1 2 2 2
1 2 3 4 5 5 5 5 5 6 6 6 6 6 6 6 6 7 7 6 6 4 3 4 6 7 6 6 6 5 4 3 3 3 2 2 2 2 2 2 2 2 2
1 1 2 3 3 3 3 3 4 3 4 4 4 5 6 7 8 11 7 5 4 2 2 2 3 3 4 4 4 5 4 4 4 3 3 2 2 1 1 1 1 1 1
1 1 1 2 2 2 2 2 2 2 5 6 7 7 5 7 10 10 11 9 6 3 3 3 3 4 4 4 4 4 4 4 3 3 3 2 1 1 1 1 0 0 1
2 1 1 2 2 2 2 3 3 3 4 5 8 10 10 10 11 11 11 11 11 8 6 5 5 5 5 5 4 4 3 3 3 3 3 3 2 1 1 1 1 1 2
3 2 2 2 2 2 3 3 3 3 4 4 6 10 12 13 13 14 13 10 9 9 7 7 7 6 6 5 5 5 5 5 5 4 4 4 3 2 2 2 2 2 2
4 3 2 2 2 3 3 4 4 4 4 4 5 6 11 10 12 15 12 9 8 8 8 8 7 6 6 6 5 5 5 5 5 4 4 4 4 3 3 2 3 3 3
4 5 4 3 3 3 3 4 4 4 4 5 6 6 5 6 7 8 8 8 7 7 7 7 6 6 6 6 5 5 5 5 5 4 4 4 3 3 3 4 4 4 3
4 4 5 3 2 2 3 3 3 4 4 4 5 6 7 6 6 7 7 7 6 6 6 6 6 6 6 6 5 6 6 5 5 4 4 4 4 3 3 4 4 4 4
5 4 3 3 2 2 2 3 3 3 4 4 4 5 8 6 5 5 5 5 5 5 5 5 5 5 5 5 5 5 5 5 4 5 4 4 4 4 4 4 4 4 4
5 5 4 3 2 3 3 3 3 3 3 3 3 4 4 4 4 4 5 5 5 5 6 5 5 5 5 6 6 4 4 4 4 5 4 4 4 4 4 4 5 5 5
5 5 5 4 3 3 3 3 3 3 3 3 3 3 3 3 3 4 4 4 5 5 6 6 5 6 7 7 7 7 6 7 6 5 4 4 4 4 4 4 5 5 5
4 5 5 4 4 4 3 3 3 3 3 3 3 3 2 3 3 3 3 4 4 4 6 7 6 6 7 8 8 8 9 10 9 8 6 4 5 5 4 4 4 5 5
4 4 4 4 4 4 4 4 4 4 3 3 3 3 3 3 3 3 3 3 3 3 4 5 7 7 8 8 8 9 9 10 11 10 9 6 5 5 5 5 6 6 6
Wind_Direction
220 200 181 178 174 166 166 168 166 166 164 163 165 169 175 177 174 168 191 189 197 218 214 208 213 205 208 210 207 202 204 203 227 241 230 218 194 203 202 204 211 214 220
203 178 157 155 147 145 151 158 165 174 181 182 176 179 184 184 183 185 197 184 181 209 228 220 227 218 214 213 211 212 211 208 216 231 227 211 212 205 193 196 206 215 220
196 168 149 155 155 161 175 176 180 188 193 194 190 195 198 193 191 193 194 190 189 203 211 215 233 227 227 221 218 219 216 213 210 217 216 194 182 155 161 199 203 212 220
168 159 163 182 201 205 205 204 204 199 200 206 211 213 211 203 197 192 192 194 192 198 202 205 212 219 236 241 235 230 221 215 211 214 210 191 182 161 165 188 208 211 222
92 81 49 352 350 7 336 292 264 231 221 213 215 222 217 209 206 195 194 196 196 202 207 211 219 226 234 232 232 233 225 227 221 216 212 198 192 179 194 187 207 201 226
54 44 30 28 29 23 2 339 328 306 268 230 224 225 222 228 224 207 192 192 197 204 215 226 240 249 258 259 252 233 216 220 231 231 222 215 208 193 174 174 174 168 251
46 39 31 29 31 24 19 19 11 356 346 308 267 245 245 250 251 235 210 191 196 203 208 216 234 239 248 248 263 260 247 236 224 212 226 224 197 186 174 178 186 193 217
35 30 24 24 24 20 24 22 12 8 8 358 347 325 296 293 281 253 231 202 199 206 206 208 223 248 247 237 242 252 252 246 234 222 210 200 181 164 168 180 196 215 228
26 21 15 17 20 21 19 11 6 9 14 12 9 9 3 347 347 313 250 190 203 212 209 209 216 238 254 243 223 240 256 258 248 233 222 217 210 210 206 196 206 221 244
13 10 11 17 23 22 16 13 11 20 22 26 32 28 25 13 11 10 346 174 200 209 208 220 229 237 255 247 212 218 239 249 230 226 230 233 229 233 233 224 218 225 227
7 18 21 20 27 28 28 27 25 29 33 31 30 25 23 17 14 18 24 39 221 220 227 237 248 259 268 262 220 212 226 215 194 192 192 198 199 207 219 223 218 221 226
29 31 25 22 27 30 35 32 31 32 35 26 20 15 12 8 10 11 16 19 19 320 278 282 281 292 294 287 227 214 212 180 146 142 143 151 154 172 190 357 311 268 259
45 31 18 21 27 29 36 33 31 32 32 25 19 13 3 359 1 9 11 11 13 14 348 329 326 341 29 24 69 151 146 140 138 137 146 146 109 73 60 46 29 19 10
57 16 9 14 19 28 34 33 35 30 25 20 15 7 359 355 357 358 356 355 360 12 23 45 62 70 70 65 64 70 80 107 118 122 118 99 74 65 53 41 31 18 11
192 4 9 11 16 30 39 31 25 25 13 5 360 356 354 353 345 343 346 339 338 343 35 64 62 64 64 59 59 60 59 66 75 81 93 90 77 63 39 36 43 43 8
218 341 7 2 9 33 38 20 359 345 355 7 6 1 340 336 341 357 4 7 16 44 64 68 69 69 66 61 62 59 53 55 60 78 87 89 85 57 10 1 356 308 298
190 166 60 28 22 33 50 50 26 356 352 4 10 12 14 10 18 21 22 32 43 52 57 58 59 60 62 60 56 60 53 44 55 65 66 56 47 34 18 354 340 324 313
164 143 119 77 53 63 68 64 56 41 15 354 356 14 24 31 35 35 32 40 43 45 49 53 54 53 55 56 53 52 51 46 47 50 48 42 34 28 19 355 334 312 305
153 141 122 102 86 89 79 70 61 54 40 15 4 8 14 27 37 38 39 48 49 47 47 50 50 50 50 51 51 51 53 52 48 45 39 32 24 21 8 346 327 310 297
153 155 137 119 102 92 80 76 67 58 48 36 30 14 7 34 42 36 39 45 50 51 50 50 49 48 47 46 47 48 49 46 39 35 25 18 13 10 358 344 335 326 312
143 143 132 113 114 115 102 96 88 77 64 53 39 34 52 56 52 48 45 44 44 44 44 47 46 41 38 36 36 36 37 33 23 13 6 2 1 -0 353 346 339 333 327
139 136 132 132 128 128 124 119 107 93 79 70 51 45 55 59 55 54 49 45 42 39 36 44 49 43 36 32 28 26 23 16 4 354 349 349 353 357 357 356 354 350 351
142 142 136 132 129 131 121 122 123 113 99 89 81 68 62 62 56 51 48 46 47 43 37 41 45 37 28 27 25 19 8 353 339 334 338 348 2 7 6 5 4 4 4
154 154 151 146 140 139 142 143 142 136 126 113 102 93 86 82 75 66 57 55 54 46 40 38 38 31 26 22 18 16 8 355 347 346 357 16 22 20 19 20 16 10 6
164 160 160 160 160 160 159 157 157 153 145 138 133 126 116 108 104 94 79 72 69 54 41 34 27 22 17 16 15 14 17 26 30 34 41 47 43 36 33 26 22 19 17
177 172 167 164 165 169 172 174 174 168 160 156 154 152 147 136 128 116 100 91 81 56 38 27 21 20 17 13 12 18 31 40 45 49 55 54 48 42 42 40 36 35 32
Height
1497 1499 1501 1503 1505 1506 1506 1507 1508 1508 1508 1508 1508 1509 1509 1509 1509 1509 1508 1507 1507 1507 1507 1508 1510 1511 1513 1515 1517 1519 1521 1524 1525 1527 1529 1532 1534 1535 1537 1539 1540 1541 1542
1496 1498 1500 1502 1503 1504 1504 1505 1506 1506 1506 1507 1507 1507 1507 1508 1508 1508 1507 1506 1505 1505 1505 1506 1507 1508 1509 1510 1512 1513 1516 1518 1520 1522 1524 1527 1529 1530 1532 1534 1536 1537 1538
1495 1497 1499 1500 1501 1502 1503 1503 1503 1504 1504 1505 1505 1505 1506 1506 1506 1506 1506 1505 1504 1504 1504 1504 1504 1505 1506 1506 1507 1509 1510 1512 1514 1516 1518 1521 1523 1525 1527 1529 1531 1533 1534
1494 1495 1496 1497 1498 1499 1500 1500 1501 1501 1502 1503 1503 1504 1504 1504 1504 1505 1505 1504 1504 1503 1503 1503 1502 1503 1503 1503 1504 1505 1506 1507 1509 1510 1513 1515 1517 1520 1522 1524 1527 1528 1530
1492 1492 1493 1494 1495 1496 1496 1497 1498 1498 1499 1500 1500 1501 1501 1502 1502 1503 1503 1503 1502 1502 1502 1502 1502 1502 1502 1502 1502 1503 1503 1504 1505 1505 1507 1509 1512 1514 1517 1519 1522 1523 1525
1491 1491 1492 1492 1492 1492 1493 1494 1494 1495 1496 1496 1497 1497 1497 1498 1499 1500 1500 1500 1501 1501 1501 1501 1501 1501 1501 1501 1501 1501 1501 1501 1502 1502 1503 1504 1506 1508 1512 1514 1516 1518 1520
1492 1491 1491 1490 1490 1490 1490 1491 1491 1492 1492 1493 1493 1493 1494 1495 1495 1496 1497 1497 1498 1498 1499 1499 1500 1500 1500 1500 1500 1500 1500 1500 1500 1501 1500 1500 1502 1503 1506 1508 1510 1512 1514
1493 1492 1490 1490 1489 1489 1488 1489 1489 1489 1489 1489 1489 1489 1489 1490 1491 1492 1492 1493 1494 1495 1496 1497 1498 1499 1499 1499 1499 1499 1499 1498 1498 1498 1499 1499 1499 1500 1501 1503 1505 1507 1509
1496 1494 1492 1491 1489 1489 1488 1488 1488 1488 1487 1486 1486 1485 1485 1486 1486 1487 1488 1489 1490 1492 1493 1493 1495 1496 1497 1497 1497 1497 1497 1497 1497 1497 1497 1498 1498 1499 1500 1501 1502 1504 1505
1499 1497 1495 1493 1492 1491 1490 1490 1489 1488 1487 1486 1484 1483 1483 1483 1483 1483 1484 1485 1486 1488 1489 1490 1491 1492 1494 1494 1495 1495 1496 1496 1496 1495 1496 1496 1497 1498 1498 1499 1500 1501 1501
1504 1501 1499 1497 1496 1495 1494 1493 1491 1490 1488 1487 1485 1484 1483 1482 1482 1481 1481 1482 1483 1484 1485 1486 1487 1489 1490 1491 1492 1493 1493 1494 1494 1494 1495 1495 1496 1496 1497 1497 1498 1498 1498
1507 1505 1503 1501 1500 1498 1497 1495 1494 1492 1490 1488 1487 1485 1484 1482 1481 1480 1480 1480 1480 1481 1482 1483 1484 1485 1486 1487 1489 1490 1491 1491 1492 1493 1493 1494 1495 1495 1495 1496 1496 1496 1496
1510 1508 1506 1504 1502 1501 1499 1498 1496 1493 1491 1489 1487 1485 1484 1482 1481 1480 1479 1478 1478 1478 1479 1480 1481 1482 1483 1484 1486 1487 1488 1489 1490 1491 1492 1493 1494 1494 1494 1494 1494 1495 1495
1512 1510 1508 1506 1504 1503 1501 1499 1496 1494 1492 1490 1488 1486 1484 1483 1481 1479 1478 1477 1477 1477 1477 1478 1478 1480 1481 1482 1484 1485 1486 1487 1489 1490 1491 1492 1492 1493 1493 1493 1493 1493 1493
1513 1511 1510 1508 1506 1504 1502 1500 1497 1495 1493 1492 1490 1488 1486 1483 1482 1480 1478 1476 1476 1476 1476 1477 1478 1479 1480 1482 1483 1484 1486 1487 1488 1489 1490 1491 1491 1492 1492 1492 1492 1492 1492
1514 1512 1510 1508 1507 1505 1503 1501 1499 1497 1495 1494 1492 1490 1488 1486 1483 1481 1479 1477 1476 1476 1476 1477 1478 1480 1481 1483 1484 1485 1486 1487 1488 1489 1490 1490 1491 1491 1491 1491 1491 1490 1490
1514 1512 1510 1509 1507 1506 1504 1502 1500 1499 1498 1496 1495 1493 1491 1489 1487 1484 1482 1479 1478 1478 1479 1479 1481 1482 1483 1484 1485 1486 1487 1488 1489 1489 1490 1490 1490 1490 1490 1490 1489 1488 1488
1513 1512 1510 1509 1508 1507 1505 1503 1501 1500 1499 1499 1497 1496 1494 1492 1490 1488 1486 1484 1482 1482 1482 1483 1484 1485 1485 1486 1487 1487 1488 1488 1489 1489 1489 1489 1489 1489 1488 1488 1487 1486 1485
1513 1512 1511 1510 1509 1508 1507 1505 1503 1502 1501 1501 1500 1499 1497 1496 1494 1492 1491 1489 1487 1487 1487 1487 1487 1488 1488 1488 1489 1489 1489 1489 1489 1489 1489 1488 1488 1487 1486 1486 1485 1484 1483
1512 1512 1511 1510 1510 1509 1509 1507 1506 1505 1504 1503 1502 1501 1500 1499 1497 1496 1494 1493 1492 1491 1491 1491 1490 1490 1490 1490 1490 1490 1490 1489 1489 1489 1488 1487 1486 1485 1484 1483 1482 1481 1480
1512 1512 1512 1511 1511 1510 1510 1509 1508 1507 1507 1506 1505 1504 1503 1502 1500 1499 1498 1497 1496 1495 1494 1493 1493 1492 1492 1491 1491 1490 1490 1489 1488 1488 1487 1486 1485 1484 1483 1481 1480 1478 1477
1512 1512 1512 1512 1511 1511 1511 1511 1510 1510 1509 1508 1507 1506 1506 1504 1503 1501 1500 1499 1498 1497 1496 1495 1494 1493 1492 1492 1491 1490 1489 1488 1487 1486 1485 1485 1484 1483 1481 1480 1478 1476 1474
1512 1512 1512 1512 1512 1512 1512 1512 1511 1511 1511 1510 1509 1508 1507 1506 1504 1503 1502 1501 1500 1498 1497 1496 1495 1494 1492 1491 1490 1489 1488 1486 1485 1484 1484 1483 1482 1481 1479 1477 1475 1473 1472
1512 1512 1512 1512 1512 1512 1512 1512 1512 1512 1511 1511 1510 1510 1508 1507 1506 1505 1503 1502 1501 1500 1498 1497 1495 1494 1493 1491 1490 1488 1487 1486 1485 1484 1482 1481 1480 1479 1478 1476 1474 1472 1470
1512 1511 1511 1511 1512 1512 1512 1512 1512 1512 1512 1512 1511 1510 1510 1509 1507 1506 1505 1503 1502 1501 1499 1498 1497 1495 1494 1492 1491 1489 1487 1486 1484 1483 1482 1480 1479 1478 1476 1474 1473 1471 1469
1511 1511 1511 1511 1511 1512 1512 1512 1512 1512 1512 1512 1511 1511 1510 1509 1508 1507 1506 1504 1503 1502 1501 1500 1498 1497 1495 1494 1492 1490 1489 1487 1485 1483 1482 1480 1479 1478 1476 1475 1473 1471 1469